Hourly Weather Jujuy

Today, 26 November, Thursday

Time Temperature Precipitation Wind Pressure Humidity
00:00 +22°C° 0.5 mm 1 mps 648 mmHg 87%
01:00 +22°C° 0.5 mm 1 mps 648 mmHg 87%
02:00 +22°C° 0 mm 1 mps 648 mmHg 87%
03:00 +21°C° 0 mm 1 mps 648 mmHg 87%
04:00 +21°C° 0 mm 1 mps 648 mmHg 88%
05:00 +21°C° 0 mm 1 mps 648 mmHg 89%
06:00 +22°C° 0.1 mm 1 mps 649 mmHg 89%
07:00 +22°C° 0.1 mm 1 mps 649 mmHg 89%
08:00 +24°C° 0 mm 2 mps 650 mmHg 85%
09:00 +24°C° 0.5 mm 2 mps 650 mmHg 83%
10:00 +25°C° 0.5 mm 2 mps 650 mmHg 81%
11:00 +25°C° 0.5 mm 2 mps 650 mmHg 79%
12:00 +25°C° 1.8 mm 3 mps 649 mmHg 82%
13:00 +24°C° 1.8 mm 3 mps 649 mmHg 84%
14:00 +24°C° 1.8 mm 3 mps 648 mmHg 87%
15:00 +22°C° 0.9 mm 3 mps 648 mmHg 88%
16:00 +21°C° 0.9 mm 2 mps 647 mmHg 88%
17:00 +19°C° 0.9 mm 2 mps 646 mmHg 89%
18:00 +19°C° 0.2 mm 2 mps 647 mmHg 89%
19:00 +20°C° 0.2 mm 1 mps 648 mmHg 89%
20:00 +20°C° 0.2 mm 1 mps 649 mmHg 88%
21:00 +20°C° 0 mm 1 mps 649 mmHg 87%
22:00 +20°C° 0 mm 1 mps 650 mmHg 86%
23:00 +19°C° 0 mm 1 mps 650 mmHg 85%

Tomorrow, 27 November, Friday

Time Temperature Precipitation Wind Pressure Humidity
00:00 +19°C° 0 mm 1 mps 650 mmHg 84%
01:00 +20°C° 0 mm 1 mps 649 mmHg 84%
02:00 +18°C° 0 mm 0 mps 649 mmHg 83%
03:00 +17°C° 0 mm 0 mps 649 mmHg 84%
04:00 +17°C° 0 mm 0 mps 649 mmHg 85%
05:00 +16°C° 0 mm 0 mps 649 mmHg 86%
06:00 +20°C° 0 mm 1 mps 649 mmHg 82%
07:00 +21°C° 0 mm 1 mps 650 mmHg 78%
08:00 +23°C° 0 mm 1 mps 651 mmHg 73%
09:00 +24°C° 0 mm 1 mps 650 mmHg 69%
10:00 +25°C° 0 mm 2 mps 650 mmHg 65%
11:00 +26°C° 0 mm 2 mps 649 mmHg 61%
12:00 +27°C° 0 mm 2 mps 648 mmHg 62%
13:00 +27°C° 0 mm 2 mps 648 mmHg 62%
14:00 +27°C° 0 mm 2 mps 647 mmHg 63%
15:00 +26°C° 0.1 mm 2 mps 646 mmHg 70%
16:00 +25°C° 0.1 mm 2 mps 646 mmHg 76%
17:00 +23°C° 0.1 mm 2 mps 645 mmHg 83%
18:00 +23°C° 0.1 mm 1 mps 646 mmHg 85%
19:00 +22°C° 0.1 mm 1 mps 647 mmHg 87%
20:00 +20°C° 0.1 mm 0 mps 647 mmHg 89%
21:00 +20°C° 0 mm 0 mps 648 mmHg 89%
22:00 +19°C° 0 mm 0 mps 648 mmHg 89%
23:00 +19°C° 0 mm 0 mps 648 mmHg 89%

Day after tomorrow, 28 November, Saturday

Time Temperature Precipitation Wind Pressure Humidity
00:00 +19°C° 0 mm 0 mps 648 mmHg 88%
01:00 +18°C° 0 mm 0 mps 647 mmHg 87%
02:00 +20°C° 0 mm 1 mps 647 mmHg 86%
03:00 +20°C° 0 mm 1 mps 647 mmHg 84%
04:00 +20°C° 0 mm 1 mps 647 mmHg 82%
05:00 +20°C° 0 mm 1 mps 648 mmHg 80%
06:00 +22°C° 0 mm 1 mps 648 mmHg 76%
07:00 +22°C° 0 mm 0 mps 649 mmHg 71%
08:00 +24°C° 0 mm 0 mps 650 mmHg 67%
09:00 +27°C° 0 mm 1 mps 650 mmHg 63%
10:00 +29°C° 0 mm 2 mps 650 mmHg 59%
11:00 +30°C° 0 mm 2 mps 649 mmHg 56%
12:00 +30°C° 0.1 mm 3 mps 649 mmHg 57%
13:00 +31°C° 0.1 mm 3 mps 648 mmHg 58%
14:00 +31°C° 0.1 mm 3 mps 647 mmHg 59%
15:00 +30°C° 0.2 mm 2 mps 647 mmHg 62%
16:00 +29°C° 0.2 mm 1 mps 646 mmHg 65%
17:00 +27°C° 0.2 mm 0 mps 646 mmHg 68%
18:00 +27°C° 0.5 mm 1 mps 646 mmHg 72%
19:00 +26°C° 0.5 mm 1 mps 647 mmHg 77%
20:00 +25°C° 0.5 mm 1 mps 647 mmHg 81%
21:00 +24°C° 1.9 mm 1 mps 648 mmHg 83%
22:00 +23°C° 1.9 mm 1 mps 648 mmHg 85%
23:00 +23°C° 1.9 mm 1 mps 649 mmHg 87%

29 November, Sunday

Time Temperature Precipitation Wind Pressure Humidity
00:00 +23°C° 0.6 mm 1 mps 649 mmHg 87%
01:00 +23°C° 0.6 mm 1 mps 648 mmHg 87%
02:00 +22°C° 0.6 mm 1 mps 648 mmHg 87%
03:00 +22°C° 0.2 mm 1 mps 648 mmHg 87%
04:00 +22°C° 0.2 mm 1 mps 648 mmHg 87%
05:00 +19°C° 0.2 mm 0 mps 649 mmHg 87%
06:00 +21°C° 0.1 mm 0 mps 649 mmHg 82%
07:00 +23°C° 0.1 mm 0 mps 650 mmHg 77%
08:00 +25°C° 0.1 mm 0 mps 651 mmHg 71%
09:00 +28°C° 0.4 mm 1 mps 651 mmHg 68%
10:00 +29°C° 0.4 mm 2 mps 651 mmHg 65%
11:00 +30°C° 0.4 mm 2 mps 650 mmHg 61%
12:00 +30°C° 0.4 mm 2 mps 650 mmHg 61%
13:00 +30°C° 0.4 mm 2 mps 649 mmHg 61%
14:00 +30°C° 0.4 mm 2 mps 648 mmHg 61%
15:00 +29°C° 1.1 mm 2 mps 647 mmHg 65%
16:00 +28°C° 1.1 mm 2 mps 647 mmHg 70%
17:00 +27°C° 1.1 mm 2 mps 647 mmHg 74%
18:00 +26°C° 1.3 mm 1 mps 647 mmHg 78%
19:00 +24°C° 1.3 mm 1 mps 647 mmHg 81%
20:00 +23°C° 1.3 mm 1 mps 648 mmHg 85%
21:00 +23°C° 0.8 mm 1 mps 648 mmHg 85%
22:00 +23°C° 0.8 mm 1 mps 648 mmHg 85%
23:00 +23°C° 0.8 mm 1 mps 649 mmHg 85%

30 November, Monday

Time Temperature Precipitation Wind Pressure Humidity
00:00 +22°C° 0 mm 1 mps 648 mmHg 84%
01:00 +22°C° 0 mm 1 mps 648 mmHg 83%
02:00 +22°C° 0 mm 1 mps 647 mmHg 83%
03:00 +22°C° 0 mm 1 mps 647 mmHg 83%
04:00 +22°C° 0 mm 1 mps 648 mmHg 82%
05:00 +22°C° 0 mm 1 mps 648 mmHg 82%
06:00 +24°C° 0 mm 1 mps 648 mmHg 76%
07:00 +26°C° 0 mm 1 mps 649 mmHg 69%
08:00 +28°C° 0 mm 1 mps 650 mmHg 62%
09:00 +29°C° 0.1 mm 1 mps 650 mmHg 58%
10:00 +31°C° 0.1 mm 2 mps 650 mmHg 55%
11:00 +33°C° 0.1 mm 3 mps 649 mmHg 51%
12:00 +32°C° 0.6 mm 2 mps 649 mmHg 52%
13:00 +32°C° 0.6 mm 2 mps 648 mmHg 53%
14:00 +31°C° 0.6 mm 1 mps 647 mmHg 54%
15:00 +31°C° 1.1 mm 1 mps 646 mmHg 57%
16:00 +30°C° 1.1 mm 2 mps 646 mmHg 59%
17:00 +29°C° 1.1 mm 2 mps 645 mmHg 62%
18:00 +27°C° 0.5 mm 2 mps 645 mmHg 66%
19:00 +26°C° 0.5 mm 2 mps 646 mmHg 70%
20:00 +24°C° 0.5 mm 2 mps 646 mmHg 75%
21:00 +24°C° 0.6 mm 2 mps 647 mmHg 76%
22:00 +23°C° 0.6 mm 1 mps 647 mmHg 77%
23:00 +23°C° 0.6 mm 1 mps 648 mmHg 79%

1 December, Tuesday

Time Temperature Precipitation Wind Pressure Humidity
00:00 +23°C° 0.2 mm 1 mps 647 mmHg 79%
01:00 +22°C° 0.2 mm 1 mps 647 mmHg 79%
02:00 +22°C° 0.2 mm 1 mps 647 mmHg 79%
03:00 +22°C° 0 mm 1 mps 647 mmHg 81%
04:00 +21°C° 0 mm 1 mps 647 mmHg 84%
05:00 +21°C° 0 mm 1 mps 647 mmHg 86%
06:00 +21°C° 0.1 mm 1 mps 648 mmHg 87%
07:00 +22°C° 0.1 mm 1 mps 649 mmHg 88%
08:00 +23°C° 0.1 mm 2 mps 649 mmHg 89%
09:00 +24°C° 0.8 mm 2 mps 649 mmHg 86%
10:00 +24°C° 0.8 mm 2 mps 649 mmHg 84%
11:00 +25°C° 0.8 mm 2 mps 650 mmHg 81%
12:00 +25°C° 1.8 mm 2 mps 649 mmHg 83%
13:00 +24°C° 1.8 mm 2 mps 648 mmHg 86%
14:00 +24°C° 1.8 mm 2 mps 647 mmHg 88%
15:00 +23°C° 0.6 mm 2 mps 647 mmHg 90%
16:00 +21°C° 0.6 mm 2 mps 646 mmHg 91%
17:00 +22°C° 0.6 mm 1 mps 646 mmHg 92%
18:00 +21°C° 0.3 mm 1 mps 646 mmHg 92%
19:00 +21°C° 0.3 mm 1 mps 647 mmHg 92%
20:00 +21°C° 0.3 mm 1 mps 648 mmHg 92%
21:00 +21°C° 0.2 mm 1 mps 648 mmHg 92%
22:00 +21°C° 0.2 mm 1 mps 649 mmHg 91%
23:00 +21°C° 0.2 mm 1 mps 649 mmHg 91%
Show more